Regional Weather Roundup
Issued by NWS

Home | Current Version | Previous Version | Graphics & Text | Print | Product List | Glossary On
Versions: 1 2 3 4 5 6 7 8 9 10 11 12 13 14 15 16 17 18 19 20 21 22 23 24 25 26 27 28 29 30 31 32 33 34 35 36 37 38 39 40 41 42 43 44 45 46 47 48 49 50
081
ASUS45 KCYS 181210
RWRWY

WYOMING REGIONAL WEATHER ROUNDUP
NATIONAL WEATHER SERVICE CHEYENNE WY
500 AM MST SAT NOV 18 2017

NOTE:  "FAIR" INDICATES FEW OR NO CLOUDS BELOW 12,000 FEET
WITH NO SIGNIFICANT WEATHER AND/OR OBSTRUCTIONS TO VISIBILITY.

WYZ001-181300-
YELLOWSTONE NATIONAL PARK

CITY           SKY/WX    TMP DP  RH WIND       PRES   REMARKS
LK YELLOWSTONE   N/A     -1  -4  87 CALM      30.25R
6HR MIN TEMP:  -1; 6HR MAX TEMP:   3;

W YELLOWSTONE  NOT AVBL

$$
WYZ002>013-054>058-071-098>099-181300-
NORTHERN WYOMING

CITY           SKY/WX    TMP DP  RH WIND       PRES   REMARKS
JACKSON        FAIR       5   2  87 N8        30.29R WCI  -8
CODY           FAIR      31  11  43 W21G41    30.13R WCI  18
GREYBULL       FAIR      21  16  81 SE6       30.17R WCI  13
6HR MIN TEMP:  21; 6HR MAX TEMP:  31;

WORLAND        FAIR      21  18  88 S10       30.17R WCI  10
6HR MIN TEMP:  18; 6HR MAX TEMP:  31;

SHERIDAN       FAIR      26  15  63 W7        30.11R WCI  18
6HR MIN TEMP:  23; 6HR MAX TEMP:  32;

BUFFALO        FAIR      25   7  46 SW15      30.11R WCI  13
6HR MIN TEMP:  21; 6HR MAX TEMP:  32; 6HR PCP:  0.01;

GILLETTE       FAIR      25  16  68 W14       30.10R WCI  13
6HR MIN TEMP:  24; 6HR MAX TEMP:  32;

HULETT         FAIR      30  19  64 W10       30.08R WCI  21
NEWCASTLE      FAIR      27  19  74 NW14      30.09R WCI  15

$$
WYZ014>020-022>026-101>103-181300-
CENTRAL WYOMING

CITY           SKY/WX    TMP DP  RH WIND       PRES   REMARKS
BIG PINEY      FAIR       0  -4  83 VRB3      30.25F
6HR MIN TEMP:   0; 6HR MAX TEMP:  15;

PINEDALE       FAIR       9   3  78 NW12      30.25S WCI  -6
DUBOIS         FAIR      14   5  67 NW15      30.17R WCI  -1
LANDER         FAIR      22   4  46 N3        30.15R
6HR MIN TEMP:  18; 6HR MAX TEMP:  28;

RIVERTON       FAIR      24   8  50 W14       30.15R WCI  12
6HR MIN TEMP:  22; 6HR MAX TEMP:  28;

CASPER         FAIR      18  14  84 SW10      30.15R WCI   6
6HR MIN TEMP:  16; 6HR MAX TEMP:  27;

DOUGLAS        FAIR      19  17  92 N8        30.15R WCI   9
6HR MIN TEMP:  19; 6HR MAX TEMP:  29;


$$
WYZ021-027>030-104>119-181300-
SOUTHERN WYOMING

CITY           SKY/WX    TMP DP  RH WIND       PRES   REMARKS
EVANSTON       FAIR      10   8  92 SW12      30.32R WCI  -5
6HR MIN TEMP:   9; 6HR MAX TEMP:  16;

FORT BRIDGER   FAIR      13  11  92 W13       30.33R WCI  -1
ROCK SPRINGS   FAIR      17  12  80 W26       30.27R WCI  -2
6HR MIN TEMP:  17; 6HR MAX TEMP:  20;

DIXON          FAIR       5   2  86 NE3       30.33R
RAWLINS        FAIR      16  12  84 SW9       30.20R WCI   4
6HR MIN TEMP:  16; 6HR MAX TEMP:  25;

SARATOGA       FAIR      18  12  79 W17       30.23R WCI   2
LARAMIE        FAIR      13   8  81 SW12      30.11R WCI  -1
6HR MIN TEMP:  13; 6HR MAX TEMP:  23; 6HR PCP: TRACE;

CHEYENNE       FAIR      25  17  72 NW14G24   30.12R WCI  13
6HR MIN TEMP:  23; 6HR MAX TEMP:  31; 6HR PCP:  0.02;

TORRINGTON     FAIR      27  23  85 NW10      30.13R WCI  17
6HR MIN TEMP:  27; 6HR MAX TEMP:  37;

PINE BLUFFS    FAIR      27  19  74 MISG      30.12R

$$




USA.gov is the U.S. government's official web portal to all federal, state and local government web resources and services.